• In Kazakhstan
  • List of Countries
  • For 7 days
  • Water Temperature
  • Satellite Maps
  • Weather Map
  • News
  • Weather Widgets
  • user-avatar
    Login

    Hourly Weather Kahramanmaras

    Today, 17 August, Thursday

    Time Temperature Precipitation Wind Pressure Humidity
    00:00 +22°C° 0.1 mm 1 mps 656 mmHg 77%
    01:00 +22°C° 0.1 mm 1 mps 656 mmHg 77%
    02:00 +21°C° 0.1 mm 1 mps 656 mmHg 77%
    03:00 +21°C° 0 mm 1 mps 656 mmHg 77%
    04:00 +21°C° 0 mm 1 mps 656 mmHg 78%
    05:00 +21°C° 0 mm 1 mps 656 mmHg 79%
    06:00 +22°C° 0 mm 1 mps 656 mmHg 71%
    07:00 +24°C° 0 mm 1 mps 657 mmHg 64%
    08:00 +26°C° 0 mm 2 mps 657 mmHg 56%
    09:00 +27°C° 0 mm 2 mps 658 mmHg 50%
    10:00 +29°C° 0 mm 2 mps 658 mmHg 44%
    11:00 +31°C° 0 mm 3 mps 658 mmHg 39%
    12:00 +31°C° 0 mm 3 mps 658 mmHg 37%
    13:00 +33°C° 0 mm 4 mps 658 mmHg 35%
    14:00 +33°C° 0 mm 4 mps 658 mmHg 33%
    15:00 +32°C° 0 mm 4 mps 658 mmHg 37%
    16:00 +30°C° 0 mm 5 mps 658 mmHg 41%
    17:00 +29°C° 0 mm 5 mps 657 mmHg 45%
    18:00 +27°C° 0.1 mm 4 mps 657 mmHg 54%
    19:00 +25°C° 0.1 mm 3 mps 657 mmHg 63%
    20:00 +23°C° 0.1 mm 2 mps 657 mmHg 72%
    21:00 +21°C° 0 mm 2 mps 657 mmHg 75%
    22:00 +21°C° 0 mm 2 mps 657 mmHg 77%
    23:00 +20°C° 0 mm 2 mps 657 mmHg 80%

    Tomorrow, 18 August, Friday

    Time Temperature Precipitation Wind Pressure Humidity
    00:00 +20°C° 0 mm 2 mps 657 mmHg 80%
    01:00 +19°C° 0 mm 2 mps 656 mmHg 81%
    02:00 +20°C° 0 mm 1 mps 656 mmHg 81%
    03:00 +20°C° 0 mm 1 mps 656 mmHg 82%
    04:00 +19°C° 0 mm 1 mps 656 mmHg 83%
    05:00 +19°C° 0 mm 1 mps 656 mmHg 84%
    06:00 +21°C° 0 mm 1 mps 657 mmHg 76%
    07:00 +23°C° 0 mm 2 mps 658 mmHg 68%
    08:00 +25°C° 0 mm 2 mps 659 mmHg 59%
    09:00 +26°C° 0 mm 2 mps 659 mmHg 53%
    10:00 +28°C° 0 mm 3 mps 660 mmHg 47%
    11:00 +30°C° 0 mm 3 mps 660 mmHg 40%
    12:00 +30°C° 0 mm 3 mps 660 mmHg 39%
    13:00 +30°C° 0 mm 4 mps 660 mmHg 38%
    14:00 +32°C° 0 mm 4 mps 660 mmHg 37%
    15:00 +30°C° 0 mm 4 mps 660 mmHg 41%
    16:00 +29°C° 0 mm 4 mps 659 mmHg 45%
    17:00 +28°C° 0 mm 4 mps 659 mmHg 49%
    18:00 +26°C° 0 mm 3 mps 659 mmHg 57%
    19:00 +24°C° 0 mm 3 mps 659 mmHg 66%
    20:00 +23°C° 0 mm 2 mps 659 mmHg 75%
    21:00 +21°C° 0 mm 2 mps 659 mmHg 79%
    22:00 +20°C° 0 mm 2 mps 659 mmHg 82%
    23:00 +20°C° 0 mm 2 mps 659 mmHg 85%

    Day after tomorrow, 19 August, Saturday

    Time Temperature Precipitation Wind Pressure Humidity
    00:00 +20°C° 0 mm 1 mps 659 mmHg 86%
    01:00 +20°C° 0 mm 1 mps 659 mmHg 86%
    02:00 +20°C° 0 mm 1 mps 658 mmHg 87%
    03:00 +19°C° 0 mm 1 mps 658 mmHg 88%
    04:00 +19°C° 0 mm 1 mps 658 mmHg 89%
    05:00 +19°C° 0 mm 1 mps 658 mmHg 89%
    06:00 +21°C° 0 mm 1 mps 659 mmHg 79%
    07:00 +23°C° 0 mm 1 mps 660 mmHg 69%
    08:00 +25°C° 0 mm 1 mps 661 mmHg 60%
    09:00 +26°C° 0 mm 2 mps 661 mmHg 51%
    10:00 +28°C° 0 mm 2 mps 661 mmHg 42%
    11:00 +30°C° 0 mm 3 mps 662 mmHg 34%
    12:00 +31°C° 0 mm 3 mps 662 mmHg 31%
    13:00 +33°C° 0 mm 3 mps 662 mmHg 29%
    14:00 +33°C° 0 mm 4 mps 662 mmHg 27%
    15:00 +32°C° 0 mm 4 mps 662 mmHg 30%
    16:00 +30°C° 0 mm 4 mps 661 mmHg 33%
    17:00 +29°C° 0 mm 4 mps 661 mmHg 37%
    18:00 +27°C° 0 mm 3 mps 661 mmHg 46%
    19:00 +25°C° 0 mm 2 mps 660 mmHg 56%
    20:00 +23°C° 0 mm 2 mps 660 mmHg 66%
    21:00 +21°C° 0 mm 2 mps 660 mmHg 70%
    22:00 +21°C° 0 mm 1 mps 660 mmHg 74%
    23:00 +20°C° 0 mm 1 mps 660 mmHg 78%

    20 August, Sunday

    Time Temperature Precipitation Wind Pressure Humidity
    00:00 +20°C° 0 mm 1 mps 659 mmHg 79%
    01:00 +19°C° 0 mm 1 mps 659 mmHg 80%
    02:00 +19°C° 0 mm 1 mps 659 mmHg 81%
    03:00 +18°C° 0 mm 1 mps 659 mmHg 79%
    04:00 +18°C° 0 mm 1 mps 659 mmHg 78%
    05:00 +18°C° 0 mm 1 mps 658 mmHg 77%
    06:00 +21°C° 0 mm 1 mps 659 mmHg 63%
    07:00 +23°C° 0 mm 1 mps 660 mmHg 49%
    08:00 +26°C° 0 mm 1 mps 661 mmHg 35%
    09:00 +28°C° 0 mm 2 mps 661 mmHg 29%
    10:00 +29°C° 0 mm 2 mps 662 mmHg 23%
    11:00 +31°C° 0 mm 3 mps 662 mmHg 17%
    12:00 +33°C° 0 mm 3 mps 662 mmHg 17%
    13:00 +34°C° 0 mm 3 mps 662 mmHg 16%
    14:00 +34°C° 0 mm 4 mps 662 mmHg 15%
    15:00 +33°C° 0 mm 4 mps 661 mmHg 17%
    16:00 +33°C° 0 mm 4 mps 661 mmHg 19%
    17:00 +32°C° 0 mm 4 mps 661 mmHg 22%
    18:00 +28°C° 0 mm 3 mps 660 mmHg 31%
    19:00 +25°C° 0 mm 2 mps 660 mmHg 39%
    20:00 +23°C° 0 mm 1 mps 659 mmHg 48%
    21:00 +22°C° 0 mm 1 mps 659 mmHg 52%
    22:00 +22°C° 0 mm 1 mps 659 mmHg 57%
    23:00 +21°C° 0 mm 1 mps 659 mmHg 61%

    21 August, Monday

    Time Temperature Precipitation Wind Pressure Humidity
    00:00 +20°C° 0 mm 1 mps 658 mmHg 61%
    01:00 +20°C° 0 mm 1 mps 658 mmHg 61%
    02:00 +20°C° 0 mm 1 mps 658 mmHg 61%
    03:00 +19°C° 0 mm 1 mps 658 mmHg 59%
    04:00 +19°C° 0 mm 1 mps 658 mmHg 57%
    05:00 +19°C° 0 mm 1 mps 658 mmHg 55%
    06:00 +22°C° 0 mm 1 mps 659 mmHg 46%
    07:00 +25°C° 0 mm 1 mps 660 mmHg 37%
    08:00 +27°C° 0 mm 1 mps 661 mmHg 28%
    09:00 +29°C° 0 mm 2 mps 661 mmHg 25%
    10:00 +31°C° 0 mm 2 mps 661 mmHg 22%
    11:00 +33°C° 0 mm 3 mps 662 mmHg 19%
    12:00 +34°C° 0 mm 3 mps 661 mmHg 19%
    13:00 +34°C° 0 mm 4 mps 661 mmHg 19%
    14:00 +35°C° 0 mm 4 mps 661 mmHg 19%
    15:00 +34°C° 0 mm 4 mps 661 mmHg 21%
    16:00 +33°C° 0 mm 4 mps 660 mmHg 23%
    17:00 +32°C° 0 mm 4 mps 660 mmHg 25%
    18:00 +28°C° 0 mm 3 mps 660 mmHg 34%
    19:00 +26°C° 0 mm 2 mps 659 mmHg 42%
    20:00 +23°C° 0 mm 2 mps 659 mmHg 51%
    21:00 +23°C° 0 mm 1 mps 659 mmHg 55%
    22:00 +22°C° 0 mm 1 mps 658 mmHg 60%
    23:00 +21°C° 0 mm 1 mps 658 mmHg 65%

    22 August, Tuesday

    Time Temperature Precipitation Wind Pressure Humidity
    00:00 +21°C° 0 mm 1 mps 658 mmHg 66%
    01:00 +20°C° 0 mm 1 mps 658 mmHg 67%
    02:00 +20°C° 0 mm 1 mps 658 mmHg 68%
    03:00 +19°C° 0 mm 1 mps 658 mmHg 67%
    04:00 +19°C° 0 mm 1 mps 658 mmHg 65%
    05:00 +19°C° 0 mm 1 mps 658 mmHg 64%
    06:00 +21°C° 0 mm 1 mps 658 mmHg 53%
    07:00 +24°C° 0 mm 1 mps 659 mmHg 43%
    08:00 +27°C° 0 mm 2 mps 660 mmHg 32%
    09:00 +29°C° 0 mm 2 mps 660 mmHg 27%
    10:00 +30°C° 0 mm 2 mps 661 mmHg 22%
    11:00 +33°C° 0 mm 3 mps 661 mmHg 17%
    12:00 +34°C° 0 mm 3 mps 661 mmHg 16%
    13:00 +35°C° 0 mm 3 mps 660 mmHg 15%
    14:00 +36°C° 0 mm 4 mps 660 mmHg 14%
    15:00 +34°C° 0 mm 4 mps 660 mmHg 18%
    16:00 +33°C° 0 mm 4 mps 659 mmHg 22%
    17:00 +32°C° 0 mm 4 mps 659 mmHg 26%
    18:00 +28°C° 0 mm 3 mps 659 mmHg 37%
    19:00 +26°C° 0 mm 2 mps 658 mmHg 47%
    20:00 +23°C° 0 mm 2 mps 658 mmHg 57%
    21:00 +23°C° 0 mm 2 mps 658 mmHg 60%
    22:00 +22°C° 0 mm 1 mps 657 mmHg 63%
    23:00 +21°C° 0 mm 1 mps 657 mmHg 66%
    Show more